Skip Page Navigation
NASA JPL Caltech
NASA Logo - Jet Propulsion Laboratory + View the NASA Portal
+ Center for Near-Earth Object Studies
JPL Home Earth Solar System Stars & Galaxies Technology
JPL Solar System Dynamics
BODIES ORBITS EPHEMERIDES TOOLS PHYSICAL DATA DISCOVERY FAQ SITE MAP
IMPORTANT: The SSD Announcement email list is now available. Major changes are coming in the near future, including possible hostname and/or URL changes. To be notified of such changes, subscribe to this email list.

Please visit this page for more details.


JPL Small-Body Database Browser
Search: [ help ]  
48465 (1991 RS20)
Classification: Main-belt Asteroid          SPK-ID: 2048465
Ephemeris | Orbit Diagram | Orbital Elements | Mission Design | Physical Parameters | Discovery Circumstances | Close-Approach Data ]

[ show orbit diagram ]
Orbital Elements at Epoch 2458600.5 (2019-Apr-27.0) TDB
Reference: JPL 21 (heliocentric ecliptic J2000)
 Element Value Uncertainty (1-sigma)   Units 
e .09816044204395215 3.6306e-08  
a 2.930451379792877 1.7729e-08 au
q 2.642796976964099 1.0561e-07 au
i 3.103679540322622 5.2349e-06 deg
node 52.11577680877348 0.00011622 deg
peri 22.00388745176071 0.00012174 deg
M 109.3264078235627 3.6102e-05 deg
tp 2458044.054307265484
(2017-Oct-17.55430727)
0.00018279 TDB
period 1832.315296663865
5.02
1.6628e-05
4.552e-08
d
yr
n .1964727362454811 1.7829e-09 deg/d
Q 3.218105782621655 1.9469e-08 au
  Orbit Determination Parameters
   # obs. used (total)      1443  
   data-arc span      10102 days (27.66 yr)  
   first obs. used      1991-09-13  
   last obs. used      2019-05-11  
   planetary ephem.      DE431  
   SB-pert. ephem.      SB431-N16  
   condition code      0  
   norm. resid. RMS      .48635  
   source      ORB  
   producer      Otto Matic  
   solution date      2019-May-30 04:38:44  

Additional Information
 Earth MOID = 1.65781 au 
 Jupiter MOID = 2.01215 au 
 T_jup = 3.267 
[ show covariance matrix ]

Ephemeris | Orbit Diagram | Orbital Elements | Mission Design | Physical Parameters | Discovery Circumstances | Close-Approach Data ]

Physical Parameter Table
Parameter Symbol Value Units Sigma Reference Notes
absolute magnitude H 13.1   n/a MPO385126  

48465 (1991 RS20)          Discovered 1991-Sep-14 by Holt, H. E. at Palomar
Reference: 20021120/Numbers.arcLast Updated: 2004-04-19

[ show close-approach data ]
Alternate Designations
 1991 RS20 = 1999 FP26 
Ephemeris | Orbit Diagram | Orbital Elements | Mission Design | Physical Parameters | Discovery Circumstances | Close-Approach Data ]
ABOUT SSD CREDITS/AWARDS PRIVACY/COPYRIGHT GLOSSARY LINKS
FirstGov
(server date/time)  
NASA Home Page
Site Manager:   Ryan S. Park
Webmaster  Alan B. Chamberlin